Voltar ao catálogo

COSMOS 1217

AtivoNavegaçãoHEO
NORAD 12032·PAYLOAD·🇷🇺 Russia

Lançado Oct 24, 1980 de Plesetsk Cosmodrome

Loading…

Próximas Passagens (próximas 24 horas)

TLE

AtualizadoSource: Space-Track

Época: Sep 10, 2026, 18:09 UTC

1 12032U 80085A   26253.75691224 -.00000700  00000-0  00000-0 0  9991
2 12032  70.1610 173.4846 5784669 236.3397  54.9235  2.00996154283935

Acompanhe COSMOS 1217 em tempo real com AllMySat

Download on the App Store